Location: Unspecified
(0.0000°N, 0.0000°E)
Time: 01:35:18
(UTC+00:00)

Daily predictions for brighter satellites

Satellite Brightness Start Highest point End
(mag) Time Altitude Azimuth Time Altitude Azimuth Time Altitude Azimuth
SL-16 R/B 3.9 03:37:51 27° NE 03:37:51 27° NE 03:40:29 10° NNE
Lacrosse 5 4.1 03:49:26 18° SE 03:49:26 18° SE 03:50:42 10° SE
Delta 7925 Rocket 4.3 03:51:15 63° NE 03:51:15 63° NE 03:58:48 10° ESE
CZ-3B DEB 4.1 03:59:27 17° SSE 03:59:27 17° SSE 04:01:08 10° SSE
Lacrosse 4 Rocket 3.2 04:02:17 30° ESE 04:02:17 30° ESE 04:04:52 10° SE
Mugunghwa Rocket 4.4 04:00:03 70° NW 04:01:11 86° NNE 04:09:53 10° ESE
Ariane 42L Rocket 3.5 04:07:42 65° S 04:07:42 65° S 04:22:38 10° E
Delta 202 4.1 04:14:13 48° S 04:14:38 49° SSE 04:19:42 10° E
ASC 2 Rocket 3.6 04:14:24 76° NW 04:14:52 84° NNE 04:22:31 10° ESE
Cosmos 1844 Rocket 3.9 04:10:43 10° N 04:15:52 40° ENE 04:21:03 10° SE
Cosmos 2341 Rocket 4.0 04:11:45 10° N 04:17:56 78° E 04:24:09 10° S
Meteor 2-19 Rocket 4.4 04:25:14 10° N 04:31:16 81° E 04:37:20 10° S
CZ-3 R/B 3.7 04:16:30 11° SW 04:36:59 36° S 04:43:15 10° ESE
NOSS 2-3 (D) 4.1 04:35:30 14° SSW 04:39:43 64° ESE 04:44:18 10° NNE
OAO 2 Rocket 3.6 04:41:31 45° WSW 04:42:22 49° SW 04:47:20 10° SE
Cosmos 540 Rocket 3.4 04:41:57 26° SSW 04:44:41 58° WNW 04:49:41 10° N
Cosmos 1295 Rocket 4.3 04:39:57 10° N 04:46:02 73° W 04:52:06 10° S
ISS -3.9 04:47:59 67° SSW 04:47:59 67° SSW 04:51:06 10° SSE
Cosmos 1603 3.7 04:43:34 10° SSW 04:49:10 84° ESE 04:54:46 10° NNE
CZ-2C R/B 3.6 04:44:47 10° S 04:49:28 72° WSW 04:54:02 10° NNW
Cosmos 1602 Rocket 4.3 04:45:14 10° S 04:49:30 54° E 04:53:48 10° NNE
Ariane H10+ 3.1 04:45:54 25° WSW 04:51:50 49° SSW 04:55:30 10° ESE
GPS 2-17 Rocket1 4.3 04:54:38 23° NW 04:55:59 27° NNW 04:59:53 10° NE
Okean-O 3.8 04:54:12 10° NNW 04:56:59 24° WNW 04:56:59 24° WNW
Intelsat 5-3 Rocket 1.8 04:59:24 39° NNW 04:59:29 39° NNW 05:02:20 10° NE
Atlas Centaur 2 2.6 05:00:04 23° NW 05:01:01 25° NW 05:04:18 10° NNE
ARIANE 5 R/B 3.5 04:59:08 28° W 05:01:17 87° N 05:21:04 10° E
ATLAS 2AS CENTAUR R/B 2.7 04:57:02 10° SSW 05:03:49 74° WNW 05:11:17 10° NNE
Cosmos 2366 rocket 4.1 04:57:35 10° N 05:03:56 81° E 05:10:15 10° S
ASTRO E2 4.2 05:01:07 10° NNW 05:04:44 33° NNE 05:08:22 10° E
Ariane H10-3 3.7 05:02:41 21° SW 05:04:45 42° S 05:16:40 10° E
GPS 2-12 Rocket1 3.4 05:04:13 26° WSW 05:06:18 44° SSW 05:10:34 10° SE
Nadezhda 3 Rocket 3.9 05:01:42 10° S 05:07:51 75° W 05:13:58 10° N
Cosmos 1666 4.3 05:10:03 17° SW 05:10:03 17° SW 05:11:30 10° SW
Cosmos 1066 Rocket 4.3 05:05:13 10° SSW 05:10:58 61° W 05:16:34 10° N
ARIANE 5 DEB (SYLDA) 4.0 05:09:38 17° WNW 05:12:27 52° NNE 05:26:35 10° E
Meteor 1-15 Rocket 4.3 05:09:54 10° NNW 05:15:45 68° W 05:21:32 10° S
Ariane 3 Deb 2.7 05:12:03 16° W 05:17:49 68° S 05:20:39 10° ESE
SL-16 R/B 4.1 05:19:50 10° WNW 05:19:50 10° WNW 05:19:56 10° WNW
ARIANE R/B 3.8 05:20:10 13° WSW 05:23:28 40° S 05:27:02 10° ESE
Cosmos 2058 Rocket 3.0 05:19:28 10° N 05:23:52 86° W 05:28:15 10° S
ARIANE 5 R/B 1.8 05:24:46 11° WNW 05:27:08 23° NNW 05:28:38 10° NE
Cosmos 1842 4.1 05:24:07 10° S 05:28:01 57° E 05:31:53 10° NNE
Cosmos 2298 Rocket 4.2 05:23:55 10° NNW 05:29:04 52° WSW 05:34:13 10° S
Cosmos 405 3.4 05:27:32 10° N 05:31:03 69° E 05:34:38 10° SSE
PAYLOAD A 4.2 05:26:30 10° N 05:31:55 85° WNW 05:37:22 10° SSW
Ariane H10-3 2.7 05:27:38 10° WNW 05:32:34 32° N 05:34:45 10° ENE
Cosmos 1844 4.1 05:28:11 10° NW 05:33:23 39° WSW 05:38:33 10° S
PSLV R/B 2.7 05:32:11 10° WSW 05:34:10 45° SSE 05:36:27 10° E
Atlas 2A Centaur Rocket 1.0 05:32:28 11° W 05:34:15 42° SSW 05:36:42 10° SE
USA 32 4.0 05:29:05 10° S 05:34:18 72° W 05:39:29 10° N
Cosmos 1606 Rocket 4.4 05:31:35 10° NNW 05:35:27 29° W 05:39:20 10° SSW
Ariane H10+ 3.1 05:32:58 10° W 05:36:18 85° N 05:47:13 10° E
CSL-04 Rocket 3.7 05:35:09 10° N 05:40:38 66° WNW 05:46:05 10° SSW
Cosmos 1538 Rocket 4.1 05:35:35 10° SSW 05:40:53 61° WNW 05:46:08 10° N
ATLAS CENTAUR R/B 1.8 05:37:38 10° SSW 05:42:26 58° WNW 05:47:02 10° N
Centaur AC-146 4.3 05:25:21 10° WNW 06:02:28 65° N 06:06:59 10° E
Centaur D-1AR AC-40 4.3 05:16:12 10° WSW 06:39:56 76° NNW 06:45:53 10° ENE
